Zurück zum Katalog

STARLINK-35639

AktivKommunikationVLEO
NORAD 66382·PAYLOAD·🇺🇸 United States

Gestartet Nov 8, 2025 von Cape Canaveral Space Force Station

Loading…

Nächste Überflüge (nächste 24 Stunden)

TLE

AktuellSource: CelesTrak SupGP

Epoche: Sep 14, 2026, 22:51 UTC

1 66382C 25257C   26257.95256944  .00029804  00000+0  88077-3 0  2574
2 66382  53.1591  55.7975 0000993  67.2033 177.1621 15.34369026    16

Verfolge STARLINK-35639 in Echtzeit mit AllMySat

Download on the App Store